Temperature
7 6 5 6 7 7 7 6 6 7 7 7 6 6 6 7 7 6 6 7 7 7 7 7 8 8 8 8 8 9 9 8 8 9 9 9 9 9 9 9 10 10 10 10
6 6 7 7 7 7 7 6 6 6 7 7 6 6 6 6 6 7 6 6 7 7 7 7 7 8 8 8 8 8 8 8 8 8 8 8 8 8 9 9 9 9 9 10
6 7 7 7 7 7 7 6 6 6 6 7 6 6 6 6 6 7 7 7 7 7 6 6 7 7 7 8 8 8 8 8 8 8 8 8 8 8 8 8 9 9 9 9
6 7 7 7 7 7 6 7 7 6 6 5 6 5 5 6 6 6 6 6 6 6 6 6 6 7 7 7 7 7 7 7 7 7 7 8 7 8 8 8 8 8 8 8
6 6 6 6 6 6 6 7 6 6 5 5 5 5 5 5 5 5 5 6 6 6 6 6 6 6 7 7 7 7 7 7 7 7 7 7 7 7 7 7 7 7 8 8
5 6 6 6 6 6 6 6 6 5 4 5 5 5 5 4 5 5 5 6 6 6 6 6 6 6 6 6 6 6 6 7 7 7 7 7 7 7 7 7 7 7 7 7
5 5 6 6 6 6 5 5 4 5 4 5 5 5 5 5 5 5 5 5 5 6 6 6 6 6 6 6 6 6 6 6 6 6 6 6 6 6 6 6 6 6 6 7
4 5 5 5 5 5 5 5 5 5 4 4 5 4 5 5 5 5 5 5 5 5 5 5 5 5 5 5 6 6 6 6 6 6 6 6 6 6 6 6 6 6 6 6
4 4 5 5 5 5 5 4 4 4 3 3 4 4 4 5 4 4 4 4 5 5 5 5 5 5 5 5 5 5 5 5 5 5 5 5 5 5 5 5 5 5 5 5
4 4 4 5 5 5 5 4 3 3 4 4 4 4 4 4 4 3 3 3 4 4 4 4 4 5 5 5 5 5 5 5 5 5 5 5 5 5 5 5 5 5 5 5
4 3 3 4 4 4 4 4 3 3 3 3 4 4 4 3 3 3 3 3 3 3 4 4 4 4 5 5 5 5 5 5 5 5 5 5 5 5 5 5 5 5 4 4
3 2 2 3 3 4 3 3 3 3 3 2 2 4 4 3 3 3 2 3 3 3 3 3 4 4 4 4 4 4 5 4 4 4 4 4 4 4 4 4 4 4 4 4
3 2 2 3 3 3 3 3 2 2 2 1 2 3 3 2 2 2 2 3 3 3 3 3 3 3 3 4 4 4 4 4 4 4 4 4 4 4 4 4 4 4 4 4
3 1 2 3 3 2 2 2 2 2 2 2 2 3 3 2 2 2 2 2 2 2 2 2 2 2 3 3 3 4 4 4 4 4 4 4 4 3 3 3 3 3 3 3
2 1 0 1 2 2 2 2 2 2 2 2 2 2 3 2 1 1 2 2 2 2 2 2 2 2 2 3 3 3 3 3 3 3 3 3 3 3 3 3 3 3 3 3
0 0 1 1 2 2 2 2 2 2 3 2 2 2 2 2 2 1 1 1 1 1 1 1 1 2 2 2 2 3 3 3 3 3 3 3 3 3 2 2 2 2 2 2
-0 -0 1 1 1 2 2 2 2 2 2 2 2 2 1 1 1 1 1 1 1 1 1 1 1 1 1 2 2 2 2 2 2 2 3 2 2 2 2 2 2 2 2 2
-1 -1 -1 -0 1 2 3 2 1 2 2 1 2 1 1 1 1 1 1 1 1 1 0 0 1 1 1 1 2 2 2 2 2 2 2 2 2 2 2 2 2 2 1 1
-1 -1 -1 -1 0 1 2 2 1 1 1 1 1 1 1 1 0 0 1 1 1 0 0 0 0 0 1 1 1 1 1 2 2 2 2 1 1 1 1 1 1 1 1 1
-1 -2 -1 -1 0 1 3 2 2 1 1 1 1 0 -0 -0 -1 -0 1 0 0 -0 -0 -0 0 0 0 1 1 1 1 1 1 1 1 1 1 1 1 1 1 0 0 0
-1 -2 -2 -1 -1 0 1 1 1 1 2 2 1 1 -0 -0 0 1 0 -0 -0 -0 -0 -0 -0 -0 0 0 0 0 1 1 1 1 1 1 0 0 0 0 0 0 -0 -0
-1 -2 -2 -2 -1 1 1 0 0 1 2 2 1 1 0 0 0 0 -0 -0 -1 -1 -1 -1 -1 -0 -0 -0 -0 0 0 0 0 0 0 0 -0 -0 -0 -0 -0 -0 -1 -1
-2 -1 -2 -1 0 1 1 2 2 2 2 1 1 1 1 0 -0 -0 -1 -1 -1 -1 -1 -1 -1 -1 -1 -1 -1 -1 -0 -0 -0 -0 -0 -0 -1 -1 -1 -1 -1 -1 -1 -1
-2 -2 -2 -2 -1 -0 1 1 2 1 1 1 1 1 0 0 -0 -1 -1 -1 -1 -1 -2 -2 -1 -1 -1 -1 -1 -1 -1 -1 -1 -1 -1 -1 -1 -1 -1 -2 -2 -2 -2 -2
-1 -3 -3 -2 -2 -1 1 1 1 1 1 0 0 0 -0 -0 -1 -1 -1 -1 -2 -2 -2 -2 -2 -2 -2 -2 -2 -2 -2 -2 -2 -2 -2 -2 -2 -2 -2 -2 -2 -2 -3 -3
-2 -2 -2 -1 -0 -1 1 1 1 0 0 -0 -0 -1 -1 -1 -1 -1 -1 -2 -2 -2 -2 -2 -2 -2 -2 -2 -2 -2 -2 -2 -2 -2 -2 -2 -3 -3 -3 -3 -3 -3 -3 -3
Wind_Speed
2 4 1 2 2 2 2 2 3 4 3 2 1 3 4 3 2 1 1 1 1 1 2 1 2 2 3 3 3 3 3 2 2 1 1 1 1 1 1 2 3 4 3 3
4 1 3 2 1 1 1 1 3 3 2 2 1 2 3 2 1 1 1 1 0 2 3 2 1 2 2 2 3 2 2 2 1 1 1 1 1 0 1 2 3 3 3 3
2 3 2 0 1 1 1 2 3 3 4 2 2 2 3 3 2 2 2 1 1 0 2 2 1 1 1 0 2 3 2 2 1 1 1 2 2 2 2 1 1 2 3 3
1 3 1 1 1 1 3 2 2 2 2 2 2 2 3 3 3 3 2 2 1 1 1 2 1 1 0 1 1 2 2 2 2 2 2 3 2 1 0 0 1 2 3 3
2 2 2 1 2 1 3 3 2 1 1 1 2 1 5 2 3 4 2 2 2 1 1 1 1 1 1 1 1 1 2 2 2 2 3 3 2 1 1 1 2 2 3 4
2 2 1 1 2 1 0 2 3 4 3 1 1 3 4 2 3 3 3 2 3 3 3 2 1 1 2 2 1 1 1 2 2 2 2 3 3 2 2 2 2 2 2 2
4 3 3 1 3 3 4 4 3 4 3 3 1 1 4 4 3 3 3 2 3 3 2 1 2 2 1 1 2 0 1 2 2 2 2 2 3 3 3 2 1 1 1 2
2 4 3 3 0 1 1 2 3 2 3 3 2 3 4 2 2 2 2 2 2 2 2 2 2 1 1 1 1 1 1 2 2 2 2 2 2 2 2 2 1 1 0 1
1 3 3 3 1 2 1 0 2 3 1 1 3 4 5 3 5 4 4 4 3 3 3 3 2 1 1 1 1 1 1 2 2 2 2 2 2 2 2 1 1 1 1 1
3 2 4 4 2 3 1 2 3 3 1 2 3 4 4 4 4 3 4 4 5 4 4 4 3 2 2 1 1 1 1 2 2 3 2 2 2 2 2 1 1 1 1 1
2 2 3 3 0 2 1 1 2 2 2 2 2 5 3 3 3 2 4 4 4 4 4 4 3 3 2 2 1 1 1 0 1 2 2 2 2 2 2 1 1 1 0 1
1 2 2 4 3 2 2 2 3 3 2 2 2 6 4 1 2 2 4 4 4 4 4 3 3 3 3 2 2 1 1 1 1 2 2 2 1 2 2 1 1 1 0 0
3 3 2 5 4 2 1 1 1 2 2 3 3 6 3 3 4 3 4 4 4 5 5 5 4 3 3 3 3 2 1 1 1 1 2 2 2 2 1 1 1 1 1 0
2 3 5 6 6 3 4 5 2 2 3 4 6 8 7 5 5 4 4 3 3 4 5 5 4 4 4 4 3 2 2 1 0 1 2 2 1 2 2 1 1 1 1 0
3 2 4 6 6 4 6 6 5 5 6 6 7 8 10 7 5 4 3 3 3 4 5 5 4 4 5 4 4 3 2 1 0 1 1 1 1 1 1 1 1 0 0 0
2 2 1 4 4 5 6 7 7 8 6 7 7 9 7 4 2 2 3 3 3 5 5 5 4 4 5 5 4 3 2 2 0 1 1 1 1 1 1 1 1 0 0 1
2 3 1 4 5 4 6 7 8 5 5 6 8 8 3 3 4 4 4 3 3 4 5 4 4 4 5 4 3 3 3 1 0 0 1 1 1 1 1 1 1 1 1 1
4 3 2 1 2 5 6 2 5 6 6 6 5 4 4 5 5 4 3 2 3 4 4 4 4 5 5 4 3 2 2 1 0 0 0 0 0 0 0 0 0 1 1 1
4 5 2 2 3 7 7 4 3 4 6 5 5 5 4 3 3 4 2 1 3 4 3 4 4 4 4 4 3 2 2 1 1 1 1 1 1 1 0 1 1 1 1 1
3 3 3 2 3 6 6 3 1 2 5 4 4 5 3 0 3 6 3 3 3 2 2 3 3 4 4 4 3 1 1 1 1 2 2 1 1 1 1 1 1 1 1 1
1 1 3 4 5 8 6 1 3 2 7 4 4 4 4 5 6 4 2 3 2 2 3 2 2 3 3 4 2 1 1 2 2 2 1 1 1 1 1 0 0 0 0 1
7 6 6 5 5 9 4 4 6 7 3 2 3 4 4 4 3 2 2 2 2 2 2 2 2 3 4 3 1 2 2 3 2 1 1 1 0 0 0 1 0 0 0 1
8 8 6 9 9 5 4 6 4 2 3 4 3 3 3 3 4 3 3 3 2 2 2 2 2 3 4 3 2 2 3 2 1 1 1 1 1 1 1 1 0 1 1 0
5 3 4 6 9 7 6 5 4 3 4 4 4 3 3 4 4 4 3 3 2 2 2 2 2 2 3 3 3 3 2 1 1 1 1 1 1 1 1 1 0 0 0 0
7 6 5 7 7 5 6 7 6 4 3 2 3 3 4 4 4 4 4 3 3 3 2 2 2 2 3 3 3 3 2 1 1 0 1 1 1 1 1 1 1 1 1 2
6 8 7 8 7 6 7 6 5 4 4 4 3 3 3 4 4 3 3 3 2 2 1 1 1 2 3 2 3 3 2 1 0 0 0 0 0 0 0 1 2 3 2 3
Wind_Direction
49 67 61 251 225 205 205 228 278 277 296 334 263 284 307 331 55 68 8 75 66 317 305 360 53 97 108 120 128 131 123 122 115 128 133 117 94 80 57 49 53 60 64 71
45 5 259 251 261 144 185 250 295 299 316 317 290 323 319 6 103 169 175 180 241 327 346 344 48 82 96 124 142 139 143 145 147 174 181 167 148 116 79 43 47 49 51 56
139 255 276 100 40 33 293 204 253 278 328 19 69 351 358 352 18 54 62 62 14 322 307 317 4 49 76 118 173 167 175 165 165 159 114 86 65 45 34 28 36 20 37 39
6 314 14 83 354 54 282 245 250 269 345 309 41 282 304 316 358 13 14 13 357 345 348 341 340 356 343 281 181 171 173 168 160 149 140 137 134 127 251 218 67 24 34 37
319 333 22 21 298 260 241 275 274 262 120 12 6 155 290 332 322 306 301 309 302 302 290 294 292 314 348 357 86 146 162 154 142 141 150 146 140 119 98 82 62 37 21 19
305 305 304 260 308 238 228 9 30 45 73 16 242 171 276 252 250 282 280 294 308 306 304 283 300 19 31 17 31 84 147 130 122 126 136 139 138 123 111 79 73 29 11 9
344 337 343 17 27 19 49 74 37 13 18 258 270 183 249 249 243 243 259 275 288 295 294 312 350 358 351 354 354 352 162 138 132 137 141 143 152 146 148 142 138 69 2 350
12 314 327 356 57 202 333 107 140 194 225 281 326 235 255 273 317 342 337 316 306 318 322 299 278 250 243 309 340 328 185 160 157 160 158 152 150 149 156 157 155 162 277 294
167 277 319 324 335 129 108 179 189 141 157 265 267 284 300 336 359 0 352 348 330 319 315 309 305 280 255 269 281 286 206 175 170 170 154 152 158 154 145 147 127 103 357 339
159 259 301 318 17 9 137 162 90 105 166 257 279 275 270 290 299 325 329 319 319 335 335 332 319 296 269 265 287 305 251 182 176 172 169 161 168 157 143 140 117 70 359 353
120 168 307 357 244 248 35 75 112 125 163 180 258 270 254 249 286 291 294 303 310 316 322 324 322 322 313 306 307 325 333 192 174 174 169 161 165 151 134 140 143 144 252 336
121 130 276 275 272 229 182 197 150 154 235 202 217 267 296 278 315 328 315 314 321 322 322 322 325 340 338 321 310 300 293 249 200 179 157 159 149 131 133 157 164 172 184 322
129 116 6 337 335 351 322 256 190 153 151 191 203 260 304 342 339 330 319 321 332 342 344 343 342 341 327 315 308 306 286 265 236 175 155 152 150 147 166 184 171 169 155 187
108 139 187 216 245 243 271 272 241 165 197 226 230 251 281 291 300 310 319 321 333 346 347 345 344 341 332 319 310 312 294 271 220 155 152 157 171 182 187 184 175 171 165 142
109 185 231 260 266 249 254 259 238 220 218 218 244 247 260 259 255 266 293 319 335 342 339 333 332 332 334 332 326 324 326 320 343 136 150 179 182 169 149 148 177 163 160 343
99 175 240 289 273 258 274 268 246 239 236 240 255 264 262 272 256 274 300 311 316 323 324 325 330 327 325 326 324 325 319 315 335 162 182 188 142 149 161 176 162 145 305 313
150 147 165 271 302 322 278 243 221 227 224 212 236 250 259 277 265 260 259 270 284 305 315 317 316 316 312 315 323 315 303 317 355 224 198 164 159 190 209 180 150 196 241 265
158 144 163 257 10 249 252 241 210 223 245 237 244 248 237 251 268 268 235 234 278 298 303 310 312 314 311 309 317 322 332 16 12 243 328 267 186 207 233 143 224 252 246 249
163 153 154 177 243 275 287 258 198 210 266 244 235 257 282 320 327 291 249 256 267 275 289 299 303 305 314 318 321 336 352 15 17 327 299 281 229 203 201 222 250 256 247 261
88 118 148 175 218 249 258 255 208 115 279 251 226 244 264 6 292 274 264 289 289 291 304 312 317 324 328 324 332 2 332 347 322 299 287 265 216 193 206 230 240 264 261 266
140 149 189 209 237 262 253 207 112 175 261 273 227 223 219 226 244 261 268 280 274 299 309 322 327 324 316 317 344 2 339 304 302 315 317 299 235 219 209 206 264 315 332 353
183 183 196 181 220 256 208 144 190 230 274 271 246 230 232 253 270 261 253 262 283 312 316 328 329 324 324 327 349 349 315 306 327 356 21 358 318 283 105 102 14 13 51 34
205 198 196 201 222 255 208 214 233 228 254 261 247 251 231 249 261 267 262 257 263 274 290 305 309 317 327 335 342 318 309 324 2 51 40 2 14 24 57 98 62 28 62 52
242 201 204 249 259 258 256 253 254 245 245 257 250 242 225 241 249 256 259 261 266 279 279 296 307 308 318 328 331 315 322 2 68 64 26 25 46 24 18 27 28 72 207 254
221 190 214 252 268 282 259 238 240 248 252 258 267 247 230 225 242 243 247 252 254 272 278 269 263 278 299 320 329 331 340 28 67 55 35 26 24 31 12 359 332 285 240 237
201 191 195 232 229 221 249 238 226 234 242 241 247 262 248 220 227 233 236 243 248 259 267 271 272 284 300 317 323 330 342 2 63 352 346 343 329 350 3 342 338 337 325 318
Height
1513 1516 1519 1517 1515 1515 1516 1518 1517 1514 1511 1511 1512 1511 1509 1507 1505 1505 1504 1503 1503 1502 1502 1501 1500 1500 1500 1501 1501 1501 1502 1502 1502 1502 1502 1503 1503 1503 1504 1505 1505 1505 1506 1505
1516 1518 1515 1513 1513 1513 1515 1517 1517 1514 1510 1511 1511 1511 1509 1507 1506 1505 1504 1503 1502 1501 1501 1500 1499 1499 1499 1499 1500 1500 1500 1501 1501 1501 1501 1501 1502 1502 1502 1503 1503 1504 1504 1504
1517 1517 1513 1513 1513 1514 1514 1516 1515 1514 1512 1510 1511 1512 1509 1507 1505 1505 1504 1503 1502 1502 1500 1499 1498 1498 1498 1498 1498 1499 1499 1500 1500 1500 1500 1500 1500 1500 1500 1500 1501 1501 1502 1502
1517 1514 1513 1513 1514 1514 1515 1512 1512 1512 1515 1518 1515 1518 1511 1508 1506 1504 1504 1503 1502 1502 1500 1499 1498 1497 1497 1497 1497 1497 1498 1498 1498 1498 1498 1498 1497 1497 1498 1498 1498 1499 1500 1499
1519 1516 1515 1515 1514 1513 1514 1511 1512 1512 1515 1519 1517 1520 1515 1509 1507 1505 1503 1502 1501 1501 1500 1498 1498 1496 1496 1496 1495 1495 1496 1496 1496 1495 1496 1496 1496 1496 1497 1497 1496 1497 1498 1498
1518 1516 1516 1515 1514 1513 1513 1513 1512 1516 1519 1523 1519 1522 1518 1512 1507 1504 1503 1501 1500 1500 1499 1497 1497 1495 1495 1495 1494 1494 1494 1494 1494 1494 1494 1494 1494 1495 1495 1495 1495 1495 1495 1496
1522 1518 1516 1515 1515 1515 1515 1520 1525 1525 1528 1523 1517 1518 1515 1507 1504 1503 1501 1500 1500 1499 1497 1496 1494 1493 1493 1493 1492 1492 1492 1492 1492 1492 1492 1492 1493 1493 1493 1493 1494 1494 1494 1494
1527 1524 1519 1517 1517 1518 1518 1520 1527 1529 1529 1524 1518 1518 1511 1504 1502 1501 1501 1500 1498 1497 1496 1495 1494 1493 1492 1491 1491 1491 1490 1490 1490 1490 1491 1491 1492 1492 1492 1492 1492 1492 1492 1493
1528 1525 1520 1518 1517 1517 1520 1522 1521 1526 1529 1531 1524 1518 1509 1503 1502 1501 1500 1499 1497 1496 1495 1494 1492 1492 1491 1491 1490 1489 1489 1488 1489 1489 1488 1489 1490 1490 1490 1490 1491 1491 1492 1492
1525 1528 1522 1519 1517 1518 1519 1520 1525 1527 1528 1527 1523 1519 1513 1506 1504 1502 1501 1499 1497 1495 1494 1493 1492 1491 1490 1490 1489 1489 1487 1487 1487 1487 1487 1487 1488 1488 1488 1489 1489 1489 1490 1490
1524 1528 1526 1523 1522 1521 1521 1522 1523 1527 1528 1528 1527 1518 1505 1505 1504 1502 1501 1499 1497 1495 1494 1492 1491 1491 1490 1489 1488 1487 1486 1486 1486 1486 1486 1486 1486 1487 1487 1488 1487 1488 1488 1488
1524 1529 1530 1525 1521 1519 1520 1521 1523 1528 1529 1529 1528 1519 1503 1503 1502 1501 1501 1499 1497 1495 1494 1492 1491 1490 1489 1488 1487 1486 1485 1485 1485 1484 1484 1485 1485 1485 1485 1485 1485 1486 1487 1487
1524 1530 1532 1526 1526 1523 1521 1520 1521 1524 1527 1529 1528 1518 1503 1502 1501 1501 1500 1498 1496 1494 1493 1491 1489 1488 1487 1486 1485 1485 1484 1483 1483 1483 1482 1483 1483 1483 1483 1483 1484 1485 1485 1485
1522 1529 1530 1527 1522 1522 1522 1519 1519 1522 1525 1524 1518 1511 1505 1503 1501 1500 1499 1497 1496 1494 1492 1490 1489 1487 1486 1485 1484 1483 1482 1482 1481 1481 1481 1481 1481 1481 1481 1482 1482 1482 1482 1482
1522 1529 1528 1525 1521 1520 1518 1516 1516 1517 1516 1516 1510 1508 1501 1500 1499 1498 1497 1495 1494 1493 1491 1489 1488 1486 1485 1483 1482 1481 1480 1480 1480 1480 1479 1479 1480 1480 1480 1480 1480 1480 1480 1480
1523 1527 1526 1523 1519 1518 1516 1512 1511 1511 1510 1509 1507 1504 1498 1497 1497 1496 1495 1494 1492 1491 1490 1488 1486 1485 1483 1482 1480 1480 1479 1479 1479 1478 1478 1478 1478 1478 1478 1478 1478 1478 1478 1478
1524 1526 1527 1524 1520 1517 1515 1508 1507 1506 1504 1504 1503 1498 1496 1496 1494 1493 1492 1492 1491 1489 1488 1486 1485 1483 1482 1481 1479 1479 1478 1478 1477 1476 1476 1476 1476 1475 1476 1476 1476 1476 1476 1476
1523 1526 1529 1527 1524 1522 1505 1502 1501 1501 1499 1498 1495 1494 1493 1492 1491 1490 1490 1490 1488 1487 1486 1484 1483 1481 1480 1479 1478 1477 1476 1476 1475 1474 1474 1474 1473 1473 1473 1473 1473 1473 1474 1474
1518 1523 1529 1529 1526 1515 1504 1499 1500 1500 1497 1494 1493 1492 1492 1491 1490 1488 1488 1487 1486 1485 1484 1482 1481 1479 1478 1476 1476 1475 1474 1473 1473 1472 1472 1471 1471 1471 1471 1471 1471 1472 1472 1471
1519 1521 1527 1529 1523 1514 1499 1496 1495 1498 1497 1490 1489 1489 1489 1489 1490 1485 1484 1484 1483 1482 1481 1480 1478 1477 1475 1474 1474 1473 1472 1471 1470 1470 1470 1470 1469 1469 1469 1469 1469 1469 1469 1469
1522 1525 1527 1525 1522 1507 1497 1494 1495 1501 1494 1487 1486 1486 1487 1486 1485 1483 1481 1480 1480 1479 1478 1477 1476 1474 1473 1472 1471 1470 1469 1469 1469 1468 1468 1467 1467 1467 1467 1467 1467 1467 1467 1467
1515 1519 1521 1522 1520 1506 1492 1493 1495 1491 1486 1485 1484 1483 1483 1482 1481 1480 1479 1478 1477 1476 1475 1475 1474 1472 1471 1470 1469 1468 1467 1467 1466 1466 1465 1465 1465 1465 1465 1465 1465 1465 1465 1464
1508 1505 1505 1504 1498 1489 1488 1487 1486 1486 1484 1483 1482 1481 1480 1479 1478 1477 1476 1475 1475 1474 1473 1472 1471 1470 1470 1468 1467 1466 1465 1465 1464 1463 1463 1463 1463 1463 1463 1462 1462 1462 1462 1462
1501 1498 1499 1498 1489 1486 1485 1484 1483 1483 1482 1481 1480 1479 1478 1477 1476 1474 1474 1473 1472 1471 1471 1470 1469 1468 1467 1466 1466 1465 1464 1463 1462 1461 1461 1461 1461 1461 1461 1460 1460 1460 1460 1460
1492 1494 1494 1491 1485 1483 1480 1480 1480 1480 1479 1478 1477 1476 1475 1474 1473 1472 1471 1470 1469 1469 1469 1468 1467 1466 1465 1465 1464 1463 1462 1461 1460 1459 1459 1459 1459 1458 1458 1458 1458 1458 1458 1458
1484 1485 1487 1483 1478 1478 1476 1476 1476 1476 1475 1474 1473 1472 1472 1471 1470 1469 1468 1467 1467 1466 1466 1465 1465 1464 1464 1463 1462 1461 1460 1459 1459 1458 1457 1457 1457 1456 1456 1456 1456 1456 1456 1456